COSMOS 2520

Last updated on Thu Oct 30 2025 00:02:50 GMT+0000 (Coordinated Universal Time)

1 42907U 17046A 25302.48000442 .00000147 00000+0 00000+0 0 9994 2 42907 0.0237 110.4058 0001109 165.2526 340.2096 1.00273238 30084
UTC large
Height (km)
Speed (km/s)
/
Latitude / Longitude
Inclination (degrees)
Orbital Period (minutes)
Azimuth
Elevation
Range (km)
Doppler Factor

Next 0 passes for location: London (51.5072 / 0.1276)

Sorry there are no passes over London.